| time (UTC) | temp F | wind direction | speed MPH | gust MPH | rain 1hr in | rain 24hr in | rain mn in | humidity % | barometer mb |
| 20260506182607 | 58 | 134 | 2.0 | 2.0 | 0.00 | 0.48 | 0.48 | 99 | 994.7 |
| 20260506182104 | 58 | 128 | 2.0 | 3.0 | 0.00 | 0.48 | 0.48 | 99 | 994.8 |
| 20260506181602 | 58 | 123 | 2.0 | 2.0 | 0.00 | 0.48 | 0.48 | 99 | 994.8 |
| 20260506181059 | 57 | 132 | 2.0 | 2.0 | 0.02 | 0.48 | 0.48 | 99 | 995.0 |
| 20260506180556 | 57 | 169 | 2.0 | 2.0 | 0.07 | 0.48 | 0.48 | 99 | 995.1 |
| 20260506180053 | 57 | 160 | 1.0 | 1.0 | 0.07 | 0.48 | 0.48 | 99 | 995.3 |
| 20260506175549 | 57 | 110 | 0.0 | 2.0 | 0.02 | 0.47 | 0.47 | 99 | 995.3 |
| 20260506175045 | 56 | 115 | 1.0 | 3.0 | 0.05 | 0.47 | 0.47 | 99 | 995.1 |
| 20260506174544 | 56 | 269 | 0.0 | 2.0 | 0.05 | 0.47 | 0.47 | 99 | 995.3 |
| 20260506174039 | 56 | 246 | 0.0 | 1.0 | 0.07 | 0.46 | 0.46 | 99 | 995.3 |
| 20260506173537 | 57 | 111 | 0.0 | 2.0 | 0.02 | 0.45 | 0.45 | 99 | 995.4 |
| 20260506173034 | 56 | 99 | 1.0 | 2.0 | 0.02 | 0.45 | 0.45 | 99 | 995.3 |
| 20260506172532 | 56 | 94 | 1.0 | 3.0 | 0.05 | 0.45 | 0.45 | 99 | 995.4 |
| 20260506172028 | 55 | 173 | 0.0 | 3.0 | 0.05 | 0.45 | 0.45 | 99 | 995.4 |
| 20260506171525 | 56 | 214 | 0.0 | 3.0 | 0.07 | 0.44 | 0.44 | 99 | 995.4 |
| 20260506171023 | 56 | 111 | 2.0 | 2.0 | 0.09 | 0.44 | 0.44 | 99 | 995.4 |
| 20260506170520 | 55 | 158 | 2.0 | 3.0 | 0.07 | 0.42 | 0.42 | 99 | 995.6 |
| 20260506170017 | 55 | 162 | 1.0 | 4.0 | 0.09 | 0.42 | 0.42 | 99 | 995.5 |
| 20260506165515 | 55 | 123 | 2.0 | 2.0 | 0.05 | 0.41 | 0.41 | 99 | 995.5 |
| 20260506165006 | 55 | 122 | 2.0 | 3.0 | 0.05 | 0.41 | 0.41 | 99 | 995.6 |
| 20260506164503 | 55 | 113 | 2.0 | 4.0 | 0.07 | 0.40 | 0.40 | 99 | 995.6 |
| 20260506164001 | 55 | 146 | 4.0 | 4.0 | 0.09 | 0.40 | 0.40 | 99 | 995.7 |
| 20260506163456 | 55 | 86 | 4.0 | 4.0 | 0.09 | 0.39 | 0.39 | 99 | 995.8 |
| 20260506162950 | 55 | 110 | 2.0 | 3.0 | 0.09 | 0.38 | 0.38 | 99 | 996.2 |
| 20260506162448 | 55 | 110 | 2.0 | 3.0 | 0.09 | 0.37 | 0.37 | 99 | 995.7 |
| 20260506161945 | 55 | 133 | 3.0 | 4.0 | 0.09 | 0.37 | 0.37 | 99 | 996.0 |
| 20260506161443 | 55 | 113 | 2.0 | 6.0 | 0.07 | 0.36 | 0.36 | 99 | 995.7 |
| 20260506160935 | 55 | 78 | 2.0 | 4.0 | 0.05 | 0.35 | 0.35 | 99 | 995.7 |
| 20260506160432 | 54 | 118 | 3.0 | 6.0 | 0.05 | 0.35 | 0.35 | 99 | 995.7 |
| 20260506155929 | 55 | 135 | 4.0 | 4.0 | 0.02 | 0.34 | 0.34 | 99 | 996.0 |
| 20260506155426 | 55 | 118 | 2.0 | 4.0 | 0.05 | 0.34 | 0.34 | 99 | 995.8 |
| 20260506153548 | 55 | 108 | 3.0 | 4.0 | 0.07 | 0.32 | 0.32 | 99 | 996.0 |
| 20260506153046 | 54 | 116 | 2.0 | 5.0 | 0.09 | 0.32 | 0.32 | 99 | 996.6 |
| 20260506152542 | 54 | 113 | 2.0 | 4.0 | 0.09 | 0.31 | 0.31 | 99 | 996.6 |
| 20260506152041 | 54 | 101 | 1.0 | 4.0 | 0.09 | 0.30 | 0.30 | 99 | 996.5 |
| 20260506151538 | 54 | 109 | 2.0 | 4.0 | 0.07 | 0.29 | 0.29 | 99 | 996.6 |
| 20260506151035 | 54 | 132 | 4.0 | 4.0 | 0.07 | 0.28 | 0.28 | 99 | 996.7 |
| 20260506150531 | 53 | 134 | 2.0 | 4.0 | 0.07 | 0.28 | 0.28 | 99 | 996.5 |
| 20260506150029 | 54 | 133 | 3.0 | 4.0 | 0.07 | 0.27 | 0.27 | 99 | 996.8 |
| 20260506145525 | 54 | 108 | 2.0 | 2.0 | 0.09 | 0.26 | 0.26 | 99 | 996.7 |
| 20260506145023 | 54 | 75 | 0.0 | 2.0 | 0.07 | 0.26 | 0.26 | 99 | 996.8 |
| 20260506144519 | 54 | 63 | 0.0 | 1.0 | 0.07 | 0.25 | 0.25 | 99 | 996.9 |
| 20260506144017 | 53 | 69 | 0.0 | 2.0 | 0.12 | 0.24 | 0.24 | 99 | 996.9 |
| 20260506143514 | 53 | 116 | 1.0 | 3.0 | 0.12 | 0.24 | 0.24 | 99 | 997.3 |
| 20260506143013 | 53 | 82 | 1.0 | 3.0 | 0.14 | 0.23 | 0.23 | 99 | 997.2 |
| 20260506142510 | 53 | 87 | 2.0 | 2.0 | 0.17 | 0.22 | 0.22 | 99 | 997.4 |
| 20260506142008 | 53 | 73 | 4.0 | 4.0 | 0.14 | 0.20 | 0.20 | 99 | 997.6 |
| 20260506141506 | 53 | 130 | 2.0 | 4.0 | 0.12 | 0.19 | 0.19 | 99 | 997.6 |
| 20260506141004 | 53 | 112 | 2.0 | 4.0 | 0.09 | 0.18 | 0.18 | 99 | 997.5 |
| 20260506140501 | 53 | 128 | 4.0 | 4.0 | 0.09 | 0.17 | 0.17 | 99 | 997.6 |
| 20260506135957 | 53 | 130 | 3.0 | 4.0 | 0.07 | 0.16 | 0.16 | 99 | 997.5 |
| 20260506135455 | 53 | 112 | 3.0 | 4.0 | 0.07 | 0.15 | 0.15 | 99 | 997.8 |
| 20260506134951 | 53 | 128 | 3.0 | 4.0 | 0.05 | 0.15 | 0.15 | 99 | 997.5 |
| 20260506134447 | 53 | 49 | 2.0 | 2.0 | 0.07 | 0.14 | 0.14 | 99 | 997.5 |
| 20260506133943 | 53 | 86 | 1.0 | 4.0 | 0.12 | 0.14 | 0.14 | 99 | 997.5 |
| 20260506133441 | 53 | 114 | 2.0 | 3.0 | 0.09 | 0.13 | 0.13 | 99 | 997.3 |
| 20260506132937 | 53 | 96 | 2.0 | 4.0 | 0.05 | 0.12 | 0.12 | 99 | 997.4 |
| 20260506132434 | 53 | 169 | 2.0 | 4.0 | 0.02 | 0.11 | 0.11 | 99 | 997.5 |
| 20260506131932 | 53 | 131 | 2.0 | 2.0 | 0.02 | 0.11 | 0.11 | 99 | 997.2 |
| 20260506131428 | 53 | 183 | 2.0 | 3.0 | 0.02 | 0.11 | 0.11 | 99 | 997.1 |
| 20260506130925 | 52 | 99 | 3.0 | 3.0 | 0.02 | 0.11 | 0.11 | 99 | 996.9 |
| 20260506130422 | 52 | 89 | 2.0 | 3.0 | 0.02 | 0.10 | 0.10 | 99 | 997.3 |
| 20260506125920 | 52 | 178 | 3.0 | 3.0 | 0.05 | 0.10 | 0.10 | 99 | 997.4 |
| 20260506125418 | 52 | 154 | 2.0 | 4.0 | 0.02 | 0.10 | 0.10 | 99 | 997.2 |
| 20260506124916 | 52 | 150 | 1.0 | 2.0 | 0.02 | 0.09 | 0.09 | 99 | 997.5 |
| 20260506124413 | 52 | 81 | 3.0 | 3.0 | 0.05 | 0.09 | 0.09 | 99 | 997.5 |
| 20260506123911 | 52 | 115 | 2.0 | 3.0 | 0.05 | 0.09 | 0.09 | 99 | 997.5 |
| 20260506123409 | 52 | 105 | 2.0 | 3.0 | 0.07 | 0.09 | 0.09 | 99 | 997.5 |
| 20260506122906 | 52 | 95 | 2.0 | 3.0 | 0.07 | 0.08 | 0.08 | 99 | 997.6 |
| 20260506122402 | 52 | 89 | 2.0 | 3.0 | 0.09 | 0.07 | 0.07 | 99 | 997.9 |
| 20260506121901 | 52 | 122 | 3.0 | 3.0 | 0.07 | 0.07 | 0.07 | 99 | 998.0 |
| 20260506121357 | 52 | 138 | 4.0 | 4.0 | 0.07 | 0.06 | 0.06 | 99 | 997.8 |
| 20260506120854 | 52 | 133 | 3.0 | 3.0 | 0.09 | 0.06 | 0.06 | 98 | 997.8 |
| 20260506120352 | 52 | 129 | 0.0 | 3.0 | 0.05 | 0.04 | 0.04 | 98 | 997.8 |
| 20260506115849 | 52 | 96 | 0.0 | 3.0 | 0.02 | 0.04 | 0.04 | 98 | 998.0 |
| 20260506115347 | 51 | 175 | 1.0 | 3.0 | 0.02 | 0.03 | 0.03 | 98 | 998.2 |
| 20260506114845 | 52 | 75 | 1.0 | 4.0 | 0.02 | 0.03 | 0.03 | 98 | 998.0 |
| 20260506114342 | 51 | 87 | 3.0 | 3.0 | 0.05 | 0.03 | 0.03 | 98 | 998.0 |
| 20260506113841 | 51 | 282 | 0.0 | 2.0 | 0.05 | 0.02 | 0.02 | 98 | 998.1 |
| 20260506113338 | 51 | 41 | 1.0 | 2.0 | 0.05 | 0.02 | 0.02 | 98 | 997.9 |
| 20260506112835 | 51 | 61 | 0.0 | 2.0 | 0.02 | 0.02 | 0.02 | 98 | 997.9 |
| 20260506112332 | 51 | 123 | 1.0 | 2.0 | 0.02 | 0.01 | 0.01 | 98 | 997.8 |
| 20260506111829 | 51 | 19 | 2.0 | 2.0 | 0.02 | 0.01 | 0.01 | 98 | 997.7 |
| 20260506111328 | 51 | 49 | 0.0 | 2.0 | 0.00 | 0.01 | 0.01 | 98 | 998.0 |
| 20260506110825 | 51 | 42 | 0.0 | 2.0 | 0.02 | 0.01 | 0.01 | 98 | 997.6 |
| 20260506110322 | 51 | 180 | 1.0 | 3.0 | 0.02 | 0.01 | 0.01 | 98 | 997.7 |
| 20260506105819 | 51 | 125 | 1.0 | 2.0 | 0.00 | 0.00 | 0.00 | 97 | 997.5 |
| 20260506105315 | 51 | 115 | 2.0 | 3.0 | 0.00 | 0.00 | 0.00 | 97 | 997.6 |
| 20260506104812 | 51 | 81 | 0.0 | 2.0 | 0.00 | 0.00 | 0.00 | 97 | 997.8 |
| 20260506104310 | 51 | 181 | 2.0 | 2.0 | 0.00 | 0.00 | 0.00 | 97 | 998.0 |
| 20260506103808 | 51 | 141 | 1.0 | 2.0 | 0.02 | 0.00 | 0.00 | 97 | 997.9 |
| 20260506103305 | 51 | 51 | 1.0 | 2.0 | 0.02 | 0.00 | 0.00 | 97 | 997.7 |
| 20260506102802 | 51 | 135 | 0.0 | 3.0 | 0.00 | 0.00 | 0.00 | 97 | 997.7 |
| 20260506102300 | 51 | 355 | 2.0 | 3.0 | 0.00 | 0.00 | 0.00 | 96 | 997.9 |
| 20260506101757 | 51 | 70 | 3.0 | 4.0 | 0.00 | 0.00 | 0.00 | 96 | 997.7 |
| 20260506101253 | 51 | 171 | 0.0 | 2.0 | 0.00 | 0.00 | 0.00 | 96 | 997.9 |
| 20260506100751 | 51 | 116 | 0.0 | 3.0 | 0.00 | 0.00 | 0.00 | 96 | 998.0 |
| 20260506100249 | 51 | 7 | 3.0 | 3.0 | 0.00 | 0.00 | 0.00 | 96 | 997.7 |
| 20260506095747 | 51 | 303 | 1.0 | 2.0 | 0.00 | 0.00 | 0.00 | 96 | 997.8 |
| 20260506095244 | 51 | 56 | 0.0 | 2.0 | 0.00 | 0.00 | 0.00 | 96 | 997.5 |
| 20260506094740 | 51 | 21 | 2.0 | 3.0 | 0.00 | 0.00 | 0.00 | 96 | 997.5 |
| 20260506094239 | 51 | 37 | 2.0 | 3.0 | 0.00 | 0.00 | 0.00 | 96 | 997.4 |
| 20260506093737 | 51 | 76 | 0.0 | 2.0 | 0.00 | 0.00 | 0.00 | 96 | 997.3 |
| 20260506093234 | 51 | 89 | 0.0 | 2.0 | 0.00 | 0.00 | 0.00 | 96 | 997.5 |
| 20260506092732 | 51 | 41 | 2.0 | 3.0 | 0.00 | 0.00 | 0.00 | 95 | 997.3 |
| 20260506092230 | 51 | 36 | 2.0 | 4.0 | 0.00 | 0.00 | 0.00 | 95 | 997.1 |
| 20260506091727 | 51 | 78 | 1.0 | 2.0 | 0.00 | 0.00 | 0.00 | 95 | 997.3 |
| 20260506091224 | 51 | 70 | 2.0 | 3.0 | 0.00 | 0.00 | 0.00 | 95 | 997.1 |
| 20260506090722 | 51 | 45 | 2.0 | 3.0 | 0.00 | 0.00 | 0.00 | 95 | 997.2 |
| 20260506090218 | 51 | 78 | 2.0 | 3.0 | 0.00 | 0.00 | 0.00 | 95 | 997.5 |
| 20260506085715 | 51 | 21 | 2.0 | 3.0 | 0.00 | 0.00 | 0.00 | 95 | 997.5 |
| 20260506085211 | 51 | 32 | 2.0 | 2.0 | 0.00 | 0.00 | 0.00 | 95 | 997.6 |
| 20260506084708 | 51 | 30 | 2.0 | 3.0 | 0.00 | 0.00 | 0.00 | 95 | 997.6 |
| 20260506084204 | 51 | 84 | 1.0 | 2.0 | 0.00 | 0.00 | 0.00 | 94 | 997.5 |
| 20260506083701 | 52 | 91 | 2.0 | 3.0 | 0.00 | 0.00 | 0.00 | 94 | 997.6 |
| 20260506083159 | 52 | 63 | 2.0 | 3.0 | 0.00 | 0.00 | 0.00 | 94 | 997.9 |
| 20260506082656 | 52 | 18 | 1.0 | 3.0 | 0.00 | 0.00 | 0.00 | 94 | 998.1 |
| 20260506082151 | 52 | 40 | 2.0 | 2.0 | 0.00 | 0.00 | 0.00 | 93 | 997.7 |
| 20260506081649 | 52 | 92 | 2.0 | 3.0 | 0.00 | 0.00 | 0.00 | 93 | 997.9 |
| 20260506081147 | 52 | 46 | 2.0 | 2.0 | 0.00 | 0.00 | 0.00 | 93 | 998.0 |
| 20260506080644 | 52 | 91 | 2.0 | 2.0 | 0.00 | 0.00 | 0.00 | 93 | 998.1 |
| 20260506080141 | 52 | 53 | 2.0 | 2.0 | 0.00 | 0.00 | 0.00 | 93 | 998.1 |
| 20260506073125 | 52 | 51 | 2.0 | 2.0 | 0.00 | 0.00 | 0.00 | 92 | 998.8 |
| 20260506072621 | 52 | 82 | 2.0 | 2.0 | 0.00 | 0.00 | 0.00 | 92 | 998.5 |
| 20260506072119 | 52 | 69 | 1.0 | 2.0 | 0.00 | 0.00 | 0.00 | 92 | 998.6 |
| 20260506071617 | 53 | 26 | 2.0 | 3.0 | 0.00 | 0.00 | 0.00 | 91 | 998.5 |
| 20260506071114 | 53 | 71 | 2.0 | 3.0 | 0.00 | 0.00 | 0.00 | 91 | 998.5 |
| 20260506070611 | 53 | 14 | 2.0 | 2.0 | 0.00 | 0.00 | 0.00 | 90 | 998.5 |
| 20260506070108 | 53 | 41 | 0.0 | 2.0 | 0.00 | 0.00 | 0.00 | 90 | 998.5 |
| 20260506062045 | 54 | 321 | 0.0 | 2.0 | 0.00 | 0.00 | 0.00 | 89 | 998.8 |
| 20260506061541 | 54 | 57 | 0.0 | 0.0 | 0.00 | 0.00 | 0.00 | 89 | 998.7 |
| 20260506061039 | 54 | 46 | 1.0 | 3.0 | 0.00 | 0.00 | 0.00 | 89 | 998.8 |
| 20260506060537 | 54 | 53 | 0.0 | 4.0 | 0.00 | 0.00 | 0.00 | 89 | 998.9 |
| 20260506051006 | 54 | 276 | 2.0 | 3.0 | 0.00 | 0.00 | 0.00 | 88 | 998.7 |
| 20260506050504 | 54 | 61 | 0.0 | 2.0 | 0.00 | 0.00 | 0.00 | 88 | 998.8 |
| 20260506044954 | 55 | 207 | 1.0 | 3.0 | 0.00 | 0.00 | 0.00 | 88 | 999.1 |
| 20260506044452 | 54 | 1 | 3.0 | 3.0 | 0.00 | 0.00 | 0.00 | 89 | 999.0 |
| 20260506043948 | 55 | 355 | 2.0 | 2.0 | 0.00 | 0.00 | 0.00 | 89 | 998.8 |
| 20260506043446 | 55 | 19 | 2.0 | 4.0 | 0.00 | 0.00 | 0.00 | 88 | 998.8 |
| 20260506042943 | 55 | 330 | 3.0 | 3.0 | 0.00 | 0.00 | 0.00 | 88 | 999.2 |
| 20260506042443 | 55 | 322 | 2.0 | 4.0 | 0.00 | 0.00 | 0.00 | 87 | 999.1 |
| 20260506041940 | 55 | 30 | 1.0 | 3.0 | 0.00 | 0.00 | 0.00 | 87 | 999.4 |
| 20260506041438 | 55 | 340 | 1.0 | 5.0 | 0.00 | 0.00 | 0.00 | 87 | 999.2 |
| 20260506040935 | 56 | 344 | 4.0 | 6.0 | 0.00 | 0.00 | 0.00 | 86 | 999.1 |
| 20260506040433 | 56 | 8 | 2.0 | 5.0 | 0.00 | 0.00 | 0.00 | 86 | 999.3 |
| 20260506035928 | 56 | 350 | 3.0 | 4.0 | 0.00 | 0.03 | 0.03 | 86 | 999.4 |
| 20260506035426 | 56 | 291 | 0.0 | 4.0 | 0.00 | 0.03 | 0.03 | 86 | 999.3 |
| 20260506034922 | 56 | 304 | 3.0 | 4.0 | 0.00 | 0.03 | 0.03 | 87 | 999.2 |
| 20260506034420 | 56 | 289 | 2.0 | 4.0 | 0.00 | 0.03 | 0.03 | 87 | 999.2 |
| 20260506033917 | 57 | 277 | 1.0 | 3.0 | 0.00 | 0.03 | 0.03 | 87 | 999.1 |
| 20260506033414 | 57 | 216 | 2.0 | 2.0 | 0.00 | 0.03 | 0.03 | 86 | 999.2 |
| 20260506032911 | 57 | 310 | 3.0 | 4.0 | 0.00 | 0.03 | 0.03 | 86 | 999.3 |
| 20260506032408 | 57 | 229 | 3.0 | 7.0 | 0.00 | 0.03 | 0.03 | 87 | 999.3 |
| 20260506031904 | 57 | 0 | 2.0 | 5.0 | 0.00 | 0.03 | 0.03 | 87 | 999.2 |
| 20260506031402 | 57 | 14 | 1.0 | 4.0 | 0.00 | 0.03 | 0.03 | 87 | 999.2 |
| 20260506030859 | 57 | 313 | 3.0 | 4.0 | 0.00 | 0.03 | 0.03 | 88 | 998.9 |
| 20260506030358 | 57 | 344 | 3.0 | 4.0 | 0.00 | 0.03 | 0.03 | 88 | 998.8 |
| 20260506025854 | 58 | 326 | 4.0 | 4.0 | 0.00 | 0.03 | 0.03 | 88 | 998.9 |
| 20260506025351 | 58 | 299 | 3.0 | 3.0 | 0.00 | 0.03 | 0.03 | 88 | 998.9 |
| 20260506024848 | 58 | 242 | 5.0 | 6.0 | 0.00 | 0.03 | 0.03 | 88 | 998.8 |
| 20260506024344 | 58 | 313 | 3.0 | 6.0 | 0.00 | 0.03 | 0.03 | 89 | 998.9 |
| 20260506023840 | 59 | 314 | 3.0 | 5.0 | 0.00 | 0.03 | 0.03 | 90 | 999.1 |
| 20260506023337 | 59 | 345 | 2.0 | 4.0 | 0.00 | 0.03 | 0.03 | 91 | 998.9 |
| 20260506022834 | 59 | 276 | 2.0 | 3.0 | 0.00 | 0.03 | 0.03 | 92 | 999.0 |
| 20260506022332 | 59 | 352 | 2.0 | 4.0 | 0.00 | 0.03 | 0.03 | 93 | 998.9 |
| 20260506021830 | 59 | 354 | 2.0 | 8.0 | 0.00 | 0.03 | 0.03 | 94 | 998.9 |
| 20260506021327 | 59 | 334 | 2.0 | 3.0 | 0.00 | 0.03 | 0.03 | 95 | 998.8 |
| 20260506020823 | 60 | 283 | 1.0 | 3.0 | 0.00 | 0.03 | 0.03 | 96 | 998.9 |
| 20260506020321 | 60 | 228 | 2.0 | 5.0 | 0.00 | 0.03 | 0.03 | 96 | 998.9 |
| 20260506015819 | 59 | 231 | 2.0 | 6.0 | 0.00 | 0.03 | 0.03 | 97 | 998.6 |
| 20260506015316 | 59 | 26 | 1.0 | 3.0 | 0.00 | 0.03 | 0.03 | 97 | 998.4 |
| 20260506014812 | 59 | 306 | 1.0 | 2.0 | 0.00 | 0.03 | 0.03 | 97 | 998.1 |
| 20260506014309 | 59 | 0 | 1.0 | 3.0 | 0.00 | 0.03 | 0.03 | 97 | 998.0 |
| 20260506013806 | 59 | 35 | 2.0 | 4.0 | 0.00 | 0.03 | 0.03 | 97 | 998.1 |
| 20260506013303 | 59 | 13 | 2.0 | 4.0 | 0.00 | 0.03 | 0.03 | 97 | 998.0 |
| 20260506012800 | 59 | 71 | 3.0 | 3.0 | 0.00 | 0.03 | 0.03 | 97 | 997.6 |
| 20260506012257 | 59 | 12 | 2.0 | 4.0 | 0.00 | 0.03 | 0.03 | 97 | 997.8 |
| 20260506011754 | 59 | 56 | 4.0 | 4.0 | 0.00 | 0.03 | 0.03 | 96 | 997.5 |
| 20260506011250 | 59 | 58 | 2.0 | 3.0 | 0.00 | 0.03 | 0.03 | 96 | 997.4 |
| 20260506010748 | 59 | 64 | 2.0 | 3.0 | 0.00 | 0.03 | 0.03 | 96 | 997.3 |
| 20260506010246 | 59 | 58 | 3.0 | 3.0 | 0.00 | 0.03 | 0.03 | 95 | 997.3 |
| 20260506005743 | 60 | 60 | 2.0 | 3.0 | 0.00 | 0.03 | 0.03 | 95 | 997.2 |
| 20260506005239 | 60 | 54 | 2.0 | 3.0 | 0.00 | 0.03 | 0.03 | 95 | 997.2 |
| 20260506004735 | 60 | 37 | 3.0 | 4.0 | 0.00 | 0.03 | 0.03 | 95 | 997.0 |
| 20260506004233 | 60 | 59 | 3.0 | 4.0 | 0.02 | 0.03 | 0.03 | 95 | 997.1 |
| 20260506003729 | 60 | 71 | 2.0 | 3.0 | 0.02 | 0.03 | 0.03 | 94 | 997.3 |
| 20260506003226 | 60 | 48 | 3.0 | 5.0 | 0.00 | 0.03 | 0.03 | 94 | 997.1 |
| 20260506002721 | 60 | 66 | 1.0 | 2.0 | 0.00 | 0.03 | 0.03 | 94 | 997.5 |
| 20260506002218 | 60 | 267 | 0.0 | 2.0 | 0.00 | 0.03 | 0.03 | 94 | 997.4 |
| 20260506001714 | 60 | 10 | 2.0 | 3.0 | 0.00 | 0.03 | 0.03 | 94 | 997.0 |
| 20260506001212 | 60 | 40 | 2.0 | 3.0 | 0.00 | 0.03 | 0.03 | 94 | 997.0 |
| 20260506000708 | 60 | 31 | 3.0 | 3.0 | 0.00 | 0.03 | 0.03 | 94 | 996.9 |
| 20260506000206 | 60 | 2 | 3.0 | 5.0 | 0.00 | 0.03 | 0.03 | 94 | 996.6 |
| 20260505235703 | 60 | 25 | 3.0 | 4.0 | 0.00 | 0.03 | 0.03 | 93 | 996.4 |
| 20260505235201 | 60 | 13 | 3.0 | 4.0 | 0.00 | 0.03 | 0.03 | 93 | 996.6 |
| 20260505234657 | 61 | 42 | 3.0 | 4.0 | 0.00 | 0.03 | 0.03 | 93 | 996.6 |
| 20260505234154 | 60 | 47 | 1.0 | 5.0 | 0.00 | 0.03 | 0.03 | 93 | 996.3 |
| 20260505233651 | 61 | 68 | 2.0 | 3.0 | 0.00 | 0.03 | 0.03 | 93 | 996.5 |
| 20260505233149 | 61 | 26 | 3.0 | 4.0 | 0.00 | 0.03 | 0.03 | 94 | 996.4 |
| 20260505232646 | 61 | 59 | 1.0 | 4.0 | 0.00 | 0.03 | 0.03 | 93 | 996.3 |
| 20260505232144 | 61 | 27 | 2.0 | 3.0 | 0.00 | 0.03 | 0.03 | 93 | 996.3 |
| 20260505231640 | 61 | 56 | 3.0 | 3.0 | 0.00 | 0.03 | 0.03 | 92 | 996.2 |
| 20260505231139 | 61 | 22 | 2.0 | 3.0 | 0.00 | 0.03 | 0.03 | 91 | 996.1 |
| 20260505230637 | 61 | 349 | 1.0 | 2.0 | 0.00 | 0.03 | 0.03 | 92 | 996.0 |
| 20260505230133 | 61 | 71 | 2.0 | 2.0 | 0.00 | 0.03 | 0.03 | 93 | 995.7 |
| 20260505225629 | 61 | 83 | 2.0 | 3.0 | 0.00 | 0.03 | 0.03 | 93 | 996.2 |
| 20260505225125 | 61 | 14 | 3.0 | 4.0 | 0.00 | 0.03 | 0.03 | 93 | 995.7 |
| 20260505224622 | 61 | 71 | 3.0 | 4.0 | 0.00 | 0.03 | 0.03 | 94 | 996.1 |
| 20260505224120 | 61 | 51 | 2.0 | 4.0 | 0.00 | 0.03 | 0.03 | 94 | 995.7 |
| 20260505223617 | 61 | 62 | 3.0 | 4.0 | 0.00 | 0.03 | 0.03 | 93 | 996.0 |
| 20260505223113 | 60 | 61 | 3.0 | 4.0 | 0.00 | 0.03 | 0.03 | 93 | 996.1 |
| 20260505222609 | 61 | 10 | 2.0 | 3.0 | 0.00 | 0.03 | 0.03 | 92 | 996.0 |
| 20260505222106 | 61 | 89 | 1.0 | 2.0 | 0.02 | 0.03 | 0.03 | 92 | 996.4 |
| 20260505221603 | 61 | 312 | 0.0 | 2.0 | 0.05 | 0.03 | 0.03 | 90 | 996.3 |
| 20260505221059 | 61 | 32 | 2.0 | 2.0 | 0.02 | 0.02 | 0.02 | 89 | 996.4 |
| 20260505220556 | 61 | 50 | 1.0 | 2.0 | 0.00 | 0.02 | 0.02 | 88 | 996.7 |
| 20260505220054 | 61 | 346 | 2.0 | 3.0 | 0.00 | 0.02 | 0.02 | 88 | 996.9 |
| 20260505215552 | 61 | 88 | 0.0 | 3.0 | 0.00 | 0.02 | 0.02 | 88 | 997.2 |
| 20260505215050 | 61 | 23 | 2.0 | 9.0 | 0.02 | 0.02 | 0.02 | 88 | 997.0 |
| 20260505214548 | 61 | 321 | 3.0 | 9.0 | 0.02 | 0.02 | 0.02 | 87 | 996.8 |
| 20260505214044 | 62 | 331 | 2.0 | 7.0 | 0.02 | 0.02 | 0.02 | 85 | 997.0 |
| 20260505213542 | 63 | 333 | 2.0 | 4.0 | 0.02 | 0.02 | 0.02 | 82 | 997.2 |
| 20260505213038 | 64 | 287 | 5.0 | 5.0 | 0.00 | 0.01 | 0.01 | 79 | 997.0 |
| 20260505212535 | 64 | 182 | 4.0 | 7.0 | 0.00 | 0.01 | 0.01 | 77 | 996.8 |
| 20260505212032 | 65 | 1 | 2.0 | 4.0 | 0.00 | 0.01 | 0.01 | 75 | 996.5 |
| 20260505211529 | 65 | 249 | 0.0 | 3.0 | 0.00 | 0.01 | 0.01 | 74 | 996.3 |
| 20260505211025 | 65 | 275 | 0.0 | 4.0 | 0.00 | 0.01 | 0.01 | 74 | 995.7 |
| 20260505210522 | 66 | 52 | 0.0 | 3.0 | 0.00 | 0.01 | 0.01 | 73 | 995.2 |
| 20260505210020 | 66 | 303 | 3.0 | 8.0 | 0.00 | 0.01 | 0.01 | 70 | 995.5 |
| 20260505205518 | 67 | 187 | 7.0 | 7.0 | 0.00 | 0.01 | 0.01 | 66 | 995.7 |
| 20260505205014 | 68 | 321 | 6.0 | 17.0 | 0.00 | 0.01 | 0.01 | 64 | 995.5 |
| 20260505204512 | 70 | 327 | 10.0 | 12.0 | 0.00 | 0.01 | 0.01 | 62 | 995.5 |
| 20260505204009 | 71 | 324 | 9.0 | 11.0 | 0.00 | 0.01 | 0.01 | 61 | 995.2 |
| 20260505203506 | 72 | 14 | 4.0 | 5.0 | 0.00 | 0.01 | 0.01 | 59 | 994.9 |
| 20260505203003 | 73 | 300 | 4.0 | 6.0 | 0.00 | 0.01 | 0.01 | 58 | 994.3 |
| 20260505202459 | 73 | 344 | 2.0 | 3.0 | 0.00 | 0.01 | 0.01 | 59 | 994.1 |
| 20260505201954 | 74 | 359 | 3.0 | 3.0 | 0.00 | 0.01 | 0.01 | 58 | 993.9 |
| 20260505201452 | 75 | 359 | 2.0 | 4.0 | 0.00 | 0.01 | 0.01 | 57 | 994.0 |
| 20260505200949 | 74 | 3 | 2.0 | 5.0 | 0.00 | 0.01 | 0.01 | 57 | 993.7 |
| 20260505200447 | 74 | 296 | 3.0 | 5.0 | 0.00 | 0.01 | 0.01 | 58 | 993.9 |
| 20260505195943 | 73 | 346 | 2.0 | 3.0 | 0.00 | 0.01 | 0.01 | 58 | 993.6 |
| 20260505195440 | 72 | 31 | 0.0 | 3.0 | 0.00 | 0.01 | 0.01 | 59 | 993.8 |
| 20260505194937 | 72 | 19 | 3.0 | 5.0 | 0.00 | 0.01 | 0.01 | 59 | 993.8 |
| 20260505194434 | 72 | 306 | 2.0 | 5.0 | 0.00 | 0.01 | 0.01 | 59 | 994.3 |
| 20260505193934 | 73 | 137 | 2.0 | 8.0 | 0.00 | 0.01 | 0.01 | 57 | 993.9 |
| 20260505193432 | 72 | 243 | 4.0 | 9.0 | 0.00 | 0.01 | 0.01 | 59 | 994.1 |
| 20260505192930 | 73 | 332 | 4.0 | 9.0 | 0.00 | 0.01 | 0.01 | 56 | 994.2 |
| 20260505192428 | 74 | 337 | 6.0 | 14.0 | 0.00 | 0.01 | 0.01 | 53 | 994.2 |
| 20260505191925 | 78 | 271 | 3.0 | 6.0 | 0.00 | 0.01 | 0.01 | 39 | 994.2 |
| 20260505191424 | 78 | 235 | 2.0 | 5.0 | 0.00 | 0.01 | 0.01 | 39 | 993.6 |
| 20260505190920 | 79 | 252 | 3.0 | 8.0 | 0.00 | 0.01 | 0.01 | 38 | 993.5 |
| 20260505190416 | 79 | 189 | 5.0 | 7.0 | 0.00 | 0.01 | 0.01 | 38 | 993.3 |
| 20260505185911 | 79 | 294 | 1.0 | 13.0 | 0.00 | 0.01 | 0.01 | 38 | 993.4 |
| 20260505185409 | 78 | 177 | 0.0 | 20.0 | 0.00 | 0.01 | 0.01 | 38 | 993.4 |
| 20260505184904 | 78 | 181 | 9.0 | 16.0 | 0.00 | 0.01 | 0.01 | 40 | 993.5 |
| 20260505184401 | 79 | 179 | 4.0 | 18.0 | 0.00 | 0.01 | 0.01 | 36 | 993.4 |
| 20260505183859 | 80 | 222 | 4.0 | 7.0 | 0.00 | 0.01 | 0.01 | 36 | 993.6 |
| 20260505183355 | 80 | 243 | 1.0 | 16.0 | 0.00 | 0.01 | 0.01 | 36 | 993.5 |